Tracking 32420 objects as of 9-Dec-2025
HD Live streaming from Space Station
objects crossing your sky now

FENGYUN 1D

Track FENGYUN 1D now!
10-day predictions
FENGYUN 1D is classified as:


NORAD ID: 27431
Int'l Code: 2002-024B
Perigee: 854.2 km
Apogee: 877.6 km
Inclination: 99.0 °
Period: 102.1 minutes
Semi major axis: 7236 km
RCS: 2.2279 m2 (large)
Launch date: May 15, 2002
Source: People's Republic of China (PRC)
Launch site: Taiyaun Space Center, China (TSC)

Polar-orbiting satellite; carries Multichannel Visible and Infrared Scan Radiometer (MVISR); means "wind and cloud."
Your satellite tracking list
Your tracking list is empty




NASA's NSSDC Master Catalog

Two Line Element Set (TLE):
1 27431U 02024B   25342.71637043  .00000170  00000-0  12118-3 0  9996
2 27431  98.9819  28.6512 0016190  60.7753 299.5034 14.10188287212638
Source of the keplerian elements: AFSPC